Penn Yan, NY

6:25 AM EDT on September 24, 2017 (GMT -0400)
Penn Yan

Weather History for KPEO - June, 2013

Change the Weather History Date:

Sunday, June 16, 2013

  Actual Average (KITH) Record (KITH)
Temperature  
Mean Temperature 67 °F -  
Max Temperature 73 °F 76 °F 92 °F (1988)
Min Temperature 61 °F 55 °F 37 °F (1961)
Cooling Degree Days 2    
Growing Degree Days 17 (Base 50)    
Moisture  
Dew Point 58 °F    
Average Humidity 71    
Maximum Humidity 84    
Minimum Humidity 61    
Precipitation  
Precipitation 0.00 in - - ()
Sea Level Pressure  
Sea Level Pressure 29.83 in    
Wind  
Wind Speed 10 mph (SW)    
Max Wind Speed 16 mph    
Max Gust Speed 29 mph    
Visibility 10 miles    
Events Rain    
Averages and records for this station are not official NWS values.
T = Trace of Precipitation, MM = Missing Value Source: NWS Daily Summary

Daily Weather History Graph

Daily Weather History Graph

Search for Another Location

Airport or City:

Trip Planner

Search our weather history database for the weather conditions in past years. The results will help you decide how hot, cold, wet, or windy it might be!

Date:

Astronomy

Jun. 16, 2013 Rise Set
Actual Time 5:29 AM EDT 8:48 PM EDT
Civil Twilight 4:54 AM EDT 9:23 PM EDT
Nautical Twilight 4:09 AM EDT 10:08 PM EDT
Astronomical Twilight 3:13 AM EDT 11:04 PM EDT
Moon 1:13 PM EDT (6/16) 12:43 AM EDT (6/16)
Length of Visible Light 16h 28m
Length of Day
15h 18m
Waxing Crescent, 49% of the Moon is Illuminated
Jun 16
Waxing Crescent
Jun 16
First Quarter
Jun 23
Full
Jun 30
Last Quarter
Jul 8
New

Hourly Weather History & Observations

Time (EDT) Temp. Dew Point Humidity Pressure Visibility Wind Dir Wind Speed Gust Speed Precip Events Conditions
12:53 AM 61.0 °F 52.0 °F 72% 29.97 in 10.0 mi SSW 9.2 mph - N/A   Clear
1:53 AM 61.0 °F 52.0 °F 72% 29.97 in 10.0 mi SSW 6.9 mph - N/A   Mostly Cloudy
2:53 AM 62.1 °F 52.0 °F 70% 29.95 in 10.0 mi South 8.1 mph - N/A   Partly Cloudy
3:53 AM 62.1 °F 52.0 °F 70% 29.92 in 10.0 mi SSW 6.9 mph - N/A   Clear
4:53 AM 62.1 °F 52.0 °F 70% 29.92 in 10.0 mi SSW 11.5 mph - N/A   Clear
5:53 AM 61.0 °F 53.1 °F 75% 29.91 in 10.0 mi SW 6.9 mph - N/A   Clear
6:53 AM 62.1 °F 52.0 °F 70% 29.90 in 10.0 mi SSW 9.2 mph - N/A   Clear
7:53 AM 63.0 °F 52.0 °F 67% 29.88 in 10.0 mi SSW 9.2 mph - N/A   Overcast
8:53 AM 64.0 °F 53.1 °F 67% 29.85 in 10.0 mi SSW 6.9 mph - N/A   Overcast
9:53 AM 64.9 °F 53.1 °F 65% 29.81 in 10.0 mi SSW 11.5 mph - 0.00 in Rain Light Rain
10:53 AM 64.9 °F 53.1 °F 65% 29.77 in 10.0 mi SSW 13.8 mph 21.9 mph 0.00 in   Overcast
11:53 AM 71.1 °F 57.0 °F 61% 29.73 in 10.0 mi SSW 16.1 mph 28.8 mph N/A   Scattered Clouds
12:53 PM 71.1 °F 59.0 °F 66% 29.72 in 10.0 mi SW 12.7 mph 21.9 mph N/A   Overcast
1:53 PM 66.9 °F 62.1 °F 84% 29.74 in 3.0 mi SW 12.7 mph - 0.00 in Rain Light Rain
2:22 PM 68.0 °F 62.6 °F 83% 29.75 in 9.0 mi WSW 9.2 mph 19.6 mph 0.00 in   Overcast
2:53 PM 69.1 °F 63.0 °F 81% 29.75 in 10.0 mi WSW 13.8 mph - 0.00 in   Overcast
3:10 PM 69.8 °F 62.6 °F 78% 29.76 in 10.0 mi WSW 13.8 mph 19.6 mph 0.00 in Rain Light Rain
3:43 PM 69.8 °F 62.6 °F 78% 29.78 in 10.0 mi West 10.4 mph - 0.00 in   Overcast
3:53 PM 71.1 °F 63.0 °F 75% 29.77 in 10.0 mi West 11.5 mph 19.6 mph 0.00 in   Overcast
4:11 PM 71.6 °F 62.6 °F 73% 29.78 in 10.0 mi WSW 11.5 mph - N/A   Mostly Cloudy
4:53 PM 73.9 °F 62.1 °F 66% 29.77 in 10.0 mi West 12.7 mph 23.0 mph N/A   Scattered Clouds
5:53 PM 73.9 °F 62.1 °F 66% 29.78 in 10.0 mi West 13.8 mph 20.7 mph N/A   Mostly Cloudy
6:53 PM 73.9 °F 62.1 °F 66% 29.79 in 10.0 mi West 8.1 mph - N/A   Partly Cloudy
7:53 PM 73.0 °F 61.0 °F 66% 29.81 in 10.0 mi WSW 6.9 mph - N/A   Clear
8:53 PM 70.0 °F 60.1 °F 71% 29.83 in 10.0 mi West 11.5 mph 18.4 mph N/A   Clear
9:53 PM 69.1 °F 60.1 °F 73% 29.84 in 10.0 mi WSW 13.8 mph 19.6 mph N/A   Clear
10:53 PM 68.0 °F 59.0 °F 73% 29.84 in 10.0 mi WSW 12.7 mph - N/A   Clear
11:53 PM 66.0 °F 59.0 °F 78% 29.85 in 10.0 mi WSW 6.9 mph - N/A   Clear